OBJECT Z

基本信息
目录编号:
67386
目录名称:
OBJECT Z
国际标识:
2026-004Z
轨道中心:
EARTH
物体状态:
在轨
发射日期:
2026-01-11 UTC
国别:
(TBD)
轨道信息
数据来源: 国际轨道数据 AOE轨道数据
星历时间: 2026-09-05T14:35:54+0800 2026-08-31T18:00:00+0800
半长轴: 6978.916km 6978.911km
偏心率: 0.0001903 0.0000019
轨道倾角: 97.805° 97.804°
近地点辐角: 186.435° 122.036°
升交点赤经: 245.856° 241.068°
平近点角: 173.684° 130.448°
近地点: 599.45km 600.76km
远地点: 602.108km 600.788km
周期: 96.703分钟 96.703分钟
每日圈数: 14.890897 14.890913
详细信息
发射场:
AFWTR
轨道高度:
LEO
数据来源:
AOE Working Group
参考系:
TEME
时间系统:
UTC
历元类型:
SGP4
2D轨道图
3D轨道图
轨道高度分析图
轨道倾角分析图
轨道综合分析图
查看轨道综合分析图